Year,Month,Day,Hour,Minute,Value (Times are PST for temperature in C)
2009,05,28,00,00,9.70
2009,05,28,00,01,9.70
2009,05,28,00,02,9.70
2009,05,28,00,03,9.70
2009,05,28,00,04,9.60
2009,05,28,00,05,9.60
2009,05,28,00,06,9.60
2009,05,28,00,07,9.50
2009,05,28,00,08,9.50
2009,05,28,00,09,9.50
2009,05,28,00,10,9.50
2009,05,28,00,11,9.40
2009,05,28,00,12,9.40
2009,05,28,00,13,9.40
2009,05,28,00,14,9.40
2009,05,28,00,15,9.40
2009,05,28,00,16,9.40
2009,05,28,00,17,9.40
2009,05,28,00,18,9.50
2009,05,28,00,19,9.50
2009,05,28,00,20,9.50
2009,05,28,00,21,9.40
2009,05,28,00,22,9.40
2009,05,28,00,23,9.50
2009,05,28,00,24,9.50
2009,05,28,00,25,9.50
2009,05,28,00,26,9.50
2009,05,28,00,27,9.50
2009,05,28,00,28,9.50
2009,05,28,00,29,9.50
2009,05,28,00,30,9.50
2009,05,28,00,31,9.50
2009,05,28,00,32,9.50
2009,05,28,00,33,9.40
2009,05,28,00,34,9.40
2009,05,28,00,35,9.40
2009,05,28,00,36,9.40
2009,05,28,00,37,9.30
2009,05,28,00,38,9.30
2009,05,28,00,39,9.30
2009,05,28,00,40,9.30
2009,05,28,00,41,9.30
2009,05,28,00,42,9.30
2009,05,28,00,43,9.30
2009,05,28,00,44,9.30
2009,05,28,00,45,9.30
2009,05,28,00,46,9.30
2009,05,28,00,47,9.30
2009,05,28,00,48,9.30
2009,05,28,00,49,9.30
2009,05,28,00,50,9.30
2009,05,28,00,51,9.30
2009,05,28,00,52,9.30
2009,05,28,00,53,9.30
2009,05,28,00,54,9.30
2009,05,28,00,55,9.30
2009,05,28,00,56,9.20
2009,05,28,00,57,9.20
2009,05,28,00,58,9.20
2009,05,28,00,59,9.20
2009,05,28,01,00,9.10
2009,05,28,01,01,9.00
2009,05,28,01,02,9.00
2009,05,28,01,03,8.90
2009,05,28,01,04,8.90
2009,05,28,01,05,8.90
2009,05,28,01,06,8.80
2009,05,28,01,07,8.80
2009,05,28,01,08,8.80
2009,05,28,01,09,8.80
2009,05,28,01,10,8.80
2009,05,28,01,11,8.70
2009,05,28,01,12,8.70
2009,05,28,01,13,8.70
2009,05,28,01,14,8.70
2009,05,28,01,15,8.70
2009,05,28,01,16,8.70
2009,05,28,01,17,8.60
2009,05,28,01,18,8.60
2009,05,28,01,19,8.60
2009,05,28,01,20,8.50
2009,05,28,01,21,8.50
2009,05,28,01,22,8.50
2009,05,28,01,23,8.50
2009,05,28,01,24,8.50
2009,05,28,01,25,8.50
2009,05,28,01,26,8.50
2009,05,28,01,27,8.40
2009,05,28,01,28,8.40
2009,05,28,01,29,8.40
2009,05,28,01,30,8.40
2009,05,28,01,31,8.40
2009,05,28,01,32,8.30
2009,05,28,01,33,8.30
2009,05,28,01,34,8.30
2009,05,28,01,35,8.20
2009,05,28,01,36,8.20
2009,05,28,01,37,8.20
2009,05,28,01,38,8.20
2009,05,28,01,39,8.20
2009,05,28,01,40,8.10
2009,05,28,01,41,8.10
2009,05,28,01,42,8.10
2009,05,28,01,43,8.00
2009,05,28,01,44,8.00
2009,05,28,01,45,8.00
2009,05,28,01,46,7.90
2009,05,28,01,47,7.90
2009,05,28,01,48,7.90
2009,05,28,01,49,7.80
2009,05,28,01,50,7.80
2009,05,28,01,51,7.80
2009,05,28,01,52,7.80
2009,05,28,01,53,7.80
2009,05,28,01,54,7.80
2009,05,28,01,55,7.80
2009,05,28,01,56,7.90
2009,05,28,01,57,7.90
2009,05,28,01,58,7.90
2009,05,28,01,59,7.90
2009,05,28,02,00,7.90
2009,05,28,02,01,7.90
2009,05,28,02,02,7.90
2009,05,28,02,03,8.00
2009,05,28,02,04,8.00
2009,05,28,02,05,8.00
2009,05,28,02,06,8.10
2009,05,28,02,07,8.10
2009,05,28,02,08,8.20
2009,05,28,02,09,8.20
2009,05,28,02,10,8.20
2009,05,28,02,11,8.20
2009,05,28,02,12,8.20
2009,05,28,02,13,8.20
2009,05,28,02,14,8.20
2009,05,28,02,15,8.20
2009,05,28,02,16,8.30
2009,05,28,02,17,8.30
2009,05,28,02,18,8.30
2009,05,28,02,19,8.30
2009,05,28,02,20,8.30
2009,05,28,02,21,8.30
2009,05,28,02,22,8.30
2009,05,28,02,23,8.30
2009,05,28,02,24,8.30
2009,05,28,02,25,8.20
2009,05,28,02,26,8.20
2009,05,28,02,27,8.20
2009,05,28,02,28,8.20
2009,05,28,02,29,8.20
2009,05,28,02,30,8.20
2009,05,28,02,31,8.20
2009,05,28,02,32,8.20
2009,05,28,02,33,8.10
2009,05,28,02,34,8.10
2009,05,28,02,35,8.00
2009,05,28,02,36,8.00
2009,05,28,02,37,7.90
2009,05,28,02,38,7.90
2009,05,28,02,39,7.90
2009,05,28,02,40,7.90
2009,05,28,02,41,7.90
2009,05,28,02,42,7.90
2009,05,28,02,43,7.90
2009,05,28,02,44,7.90
2009,05,28,02,45,7.90
2009,05,28,02,46,7.90
2009,05,28,02,47,7.90
2009,05,28,02,48,8.00
2009,05,28,02,49,8.00
2009,05,28,02,50,8.10
2009,05,28,02,51,8.10
2009,05,28,02,52,8.20
2009,05,28,02,53,8.20
2009,05,28,02,54,8.30
2009,05,28,02,55,8.40
2009,05,28,02,56,8.50
2009,05,28,02,57,8.50
2009,05,28,02,58,8.60
2009,05,28,02,59,8.70
2009,05,28,03,00,8.80
2009,05,28,03,01,8.90
2009,05,28,03,02,9.00
2009,05,28,03,03,9.00
2009,05,28,03,04,9.10
2009,05,28,03,05,9.10
2009,05,28,03,06,9.10
2009,05,28,03,07,9.20
2009,05,28,03,08,9.20
2009,05,28,03,09,9.20
2009,05,28,03,10,9.20
2009,05,28,03,11,9.20
2009,05,28,03,12,9.20
2009,05,28,03,13,9.20
2009,05,28,03,14,9.20
2009,05,28,03,15,9.20
2009,05,28,03,16,9.20
2009,05,28,03,17,9.20
2009,05,28,03,18,9.20
2009,05,28,03,19,9.20
2009,05,28,03,20,9.20
2009,05,28,03,21,9.20
2009,05,28,03,22,9.20
2009,05,28,03,23,9.10
2009,05,28,03,24,9.00
2009,05,28,03,25,8.90
2009,05,28,03,26,8.90
2009,05,28,03,27,8.80
2009,05,28,03,28,8.80
2009,05,28,03,29,8.70
2009,05,28,03,30,8.70
2009,05,28,03,31,8.70
2009,05,28,03,32,8.60
2009,05,28,03,33,8.60
2009,05,28,03,34,8.50
2009,05,28,03,35,8.40
2009,05,28,03,36,8.40
2009,05,28,03,37,8.30
2009,05,28,03,38,8.20
2009,05,28,03,39,8.10
2009,05,28,03,40,8.00
2009,05,28,03,41,8.00
2009,05,28,03,42,7.90
2009,05,28,03,43,7.90
2009,05,28,03,44,7.80
2009,05,28,03,45,7.80
2009,05,28,03,46,7.80
2009,05,28,03,47,7.80
2009,05,28,03,48,7.80
2009,05,28,03,49,7.80
2009,05,28,03,50,7.80
2009,05,28,03,51,7.80
2009,05,28,03,52,7.80
2009,05,28,03,53,7.80
2009,05,28,03,54,7.80
2009,05,28,03,55,7.80
2009,05,28,03,56,7.80
2009,05,28,03,57,7.80
2009,05,28,03,58,7.80
2009,05,28,03,59,7.80
2009,05,28,04,00,7.80
2009,05,28,04,01,7.80
2009,05,28,04,02,7.80
2009,05,28,04,03,7.80
2009,05,28,04,04,7.80
2009,05,28,04,05,7.80
2009,05,28,04,06,7.80
2009,05,28,04,07,7.70
2009,05,28,04,08,7.70
2009,05,28,04,09,7.70
2009,05,28,04,10,7.70
2009,05,28,04,11,7.70
2009,05,28,04,12,7.70
2009,05,28,04,13,7.70
2009,05,28,04,14,7.60
2009,05,28,04,15,7.60
2009,05,28,04,16,7.50
2009,05,28,04,17,7.50
2009,05,28,04,18,7.40
2009,05,28,04,19,7.40
2009,05,28,04,20,7.30
2009,05,28,04,21,7.30
2009,05,28,04,22,7.30
2009,05,28,04,23,7.30
2009,05,28,04,24,7.30
2009,05,28,04,25,7.30
2009,05,28,04,26,7.30
2009,05,28,04,27,7.30
2009,05,28,04,28,7.30
2009,05,28,04,29,7.40
2009,05,28,04,30,7.40
2009,05,28,04,31,7.40
2009,05,28,04,32,7.40
2009,05,28,04,33,7.40
2009,05,28,04,34,7.40
2009,05,28,04,35,7.40
2009,05,28,04,36,7.40
2009,05,28,04,37,7.40
2009,05,28,04,38,7.30
2009,05,28,04,39,7.30
2009,05,28,04,40,7.30
2009,05,28,04,41,7.30
2009,05,28,04,42,7.30
2009,05,28,04,43,7.30
2009,05,28,04,44,7.30
2009,05,28,04,45,7.30
2009,05,28,04,46,7.30
2009,05,28,04,47,7.30
2009,05,28,04,48,7.30
2009,05,28,04,49,7.30
2009,05,28,04,50,7.30
2009,05,28,04,51,7.30
2009,05,28,04,52,7.30
2009,05,28,04,53,7.30
2009,05,28,04,54,7.30
2009,05,28,04,55,7.30
2009,05,28,04,56,7.30
2009,05,28,04,57,7.30
2009,05,28,04,58,7.30
2009,05,28,04,59,7.30
2009,05,28,05,00,7.30
2009,05,28,05,01,7.30
2009,05,28,05,02,7.30
2009,05,28,05,03,7.30
2009,05,28,05,04,7.30
2009,05,28,05,05,7.30
2009,05,28,05,06,7.30
2009,05,28,05,07,7.30
2009,05,28,05,08,7.30
2009,05,28,05,09,7.30
2009,05,28,05,10,7.20
2009,05,28,05,11,7.20
2009,05,28,05,12,7.20
2009,05,28,05,13,7.20
2009,05,28,05,14,7.20
2009,05,28,05,15,7.20
2009,05,28,05,16,7.30
2009,05,28,05,17,7.30
2009,05,28,05,18,7.30
2009,05,28,05,19,7.30
2009,05,28,05,20,7.20
2009,05,28,05,21,7.20
2009,05,28,05,22,7.10
2009,05,28,05,23,7.10
2009,05,28,05,24,7.00
2009,05,28,05,25,7.00
2009,05,28,05,26,7.00
2009,05,28,05,27,7.00
2009,05,28,05,28,7.00
2009,05,28,05,29,7.00
2009,05,28,05,30,7.00
2009,05,28,05,31,7.00
2009,05,28,05,32,7.00
2009,05,28,05,33,7.00
2009,05,28,05,34,7.00
2009,05,28,05,35,7.00
2009,05,28,05,36,7.00
2009,05,28,05,37,7.00
2009,05,28,05,38,7.00
2009,05,28,05,39,7.00
2009,05,28,05,40,7.00
2009,05,28,05,41,7.00
2009,05,28,05,42,7.00
2009,05,28,05,43,7.00
2009,05,28,05,44,7.00
2009,05,28,05,45,7.10
2009,05,28,05,46,7.10
2009,05,28,05,47,7.20
2009,05,28,05,48,7.20
2009,05,28,05,49,7.30
2009,05,28,05,50,7.30
2009,05,28,05,51,7.30
2009,05,28,05,52,7.30
2009,05,28,05,53,7.30
2009,05,28,05,54,7.30
2009,05,28,05,55,7.40
2009,05,28,05,56,7.40
2009,05,28,05,57,7.40
2009,05,28,05,58,7.40
2009,05,28,05,59,7.50
2009,05,28,06,00,7.50
2009,05,28,06,01,7.50
2009,05,28,06,02,7.50
2009,05,28,06,03,7.60
2009,05,28,06,04,7.60
2009,05,28,06,05,7.60
2009,05,28,06,06,7.70
2009,05,28,06,07,7.70
2009,05,28,06,08,7.70
2009,05,28,06,09,7.70
2009,05,28,06,10,7.70
2009,05,28,06,11,7.80
2009,05,28,06,12,7.80
2009,05,28,06,13,7.80
2009,05,28,06,14,7.80
2009,05,28,06,15,7.80
2009,05,28,06,16,7.80
2009,05,28,06,17,7.80
2009,05,28,06,18,7.80
2009,05,28,06,19,7.90
2009,05,28,06,20,7.90
2009,05,28,06,21,7.90
2009,05,28,06,22,7.90
2009,05,28,06,23,7.90
2009,05,28,06,24,7.90
2009,05,28,06,25,8.00
2009,05,28,06,26,8.00
2009,05,28,06,27,8.00
2009,05,28,06,28,8.00
2009,05,28,06,29,8.00
2009,05,28,06,30,8.00
2009,05,28,06,31,8.10
2009,05,28,06,32,8.10
2009,05,28,06,33,8.10
2009,05,28,06,34,8.10
2009,05,28,06,35,8.20
2009,05,28,06,36,8.20
2009,05,28,06,37,8.20
2009,05,28,06,38,8.20
2009,05,28,06,39,8.20
2009,05,28,06,40,8.30
2009,05,28,06,41,8.30
2009,05,28,06,42,8.40
2009,05,28,06,43,8.50
2009,05,28,06,44,8.50
2009,05,28,06,45,8.60
2009,05,28,06,46,8.60
2009,05,28,06,47,8.60
2009,05,28,06,48,8.60
2009,05,28,06,49,8.70
2009,05,28,06,50,8.70
2009,05,28,06,51,8.70
2009,05,28,06,52,8.70
2009,05,28,06,53,8.80
2009,05,28,06,54,8.90
2009,05,28,06,55,8.90
2009,05,28,06,56,9.00
2009,05,28,06,57,9.10
2009,05,28,06,58,9.20
2009,05,28,06,59,9.30
2009,05,28,07,00,9.40
2009,05,28,07,01,9.50
2009,05,28,07,02,9.60
2009,05,28,07,03,9.70
2009,05,28,07,04,9.70
2009,05,28,07,05,9.80
2009,05,28,07,06,9.90
2009,05,28,07,07,9.90
2009,05,28,07,08,10.10
2009,05,28,07,09,10.20
2009,05,28,07,10,10.30
2009,05,28,07,11,10.40
2009,05,28,07,12,10.50
2009,05,28,07,13,10.60
2009,05,28,07,14,10.60
2009,05,28,07,15,10.60
2009,05,28,07,16,10.60
2009,05,28,07,17,10.60
2009,05,28,07,18,10.60
2009,05,28,07,19,10.50
2009,05,28,07,20,10.40
2009,05,28,07,21,10.40
2009,05,28,07,22,10.40
2009,05,28,07,23,10.40
2009,05,28,07,24,10.40
2009,05,28,07,25,10.40
2009,05,28,07,26,10.40
2009,05,28,07,27,10.50
2009,05,28,07,28,10.60
2009,05,28,07,29,10.60
2009,05,28,07,30,10.60
2009,05,28,07,31,10.60
2009,05,28,07,32,10.60
2009,05,28,07,33,10.60
2009,05,28,07,34,10.60
2009,05,28,07,35,10.60
2009,05,28,07,36,10.60
2009,05,28,07,37,10.60
2009,05,28,07,38,10.60
2009,05,28,07,39,10.60
2009,05,28,07,40,10.60
2009,05,28,07,41,10.60
2009,05,28,07,42,10.50
2009,05,28,07,43,10.40
2009,05,28,07,44,10.40
2009,05,28,07,45,10.40
2009,05,28,07,46,10.40
2009,05,28,07,47,10.40
2009,05,28,07,48,10.40
2009,05,28,07,49,10.40
2009,05,28,07,50,10.40
2009,05,28,07,51,10.40
2009,05,28,07,52,10.40
2009,05,28,07,53,10.40
2009,05,28,07,54,10.40
2009,05,28,07,55,10.40
2009,05,28,07,56,10.40
2009,05,28,07,57,10.40
2009,05,28,07,58,10.50
2009,05,28,07,59,10.60
2009,05,28,08,00,10.60
2009,05,28,08,01,10.60
2009,05,28,08,02,10.70
2009,05,28,08,03,10.80
2009,05,28,08,04,10.80
2009,05,28,08,05,10.90
2009,05,28,08,06,10.90
2009,05,28,08,07,11.10
2009,05,28,08,08,11.10
2009,05,28,08,09,11.20
2009,05,28,08,10,11.30
2009,05,28,08,11,11.30
2009,05,28,08,12,11.40
2009,05,28,08,13,11.50
2009,05,28,08,14,11.70
2009,05,28,08,15,11.80
2009,05,28,08,16,12.10
2009,05,28,08,17,12.30
2009,05,28,08,18,12.50
2009,05,28,08,19,12.70
2009,05,28,08,20,12.80
2009,05,28,08,21,13.00
2009,05,28,08,22,13.10
2009,05,28,08,23,13.20
2009,05,28,08,24,13.30
2009,05,28,08,25,13.40
2009,05,28,08,26,13.50
2009,05,28,08,27,13.60
2009,05,28,08,28,13.60
2009,05,28,08,29,13.70
2009,05,28,08,30,13.80
2009,05,28,08,31,13.90
2009,05,28,08,32,13.90
2009,05,28,08,33,14.00
2009,05,28,08,34,14.10
2009,05,28,08,35,14.10
2009,05,28,08,36,14.00
2009,05,28,08,37,14.00
2009,05,28,08,38,14.10
2009,05,28,08,39,14.20
2009,05,28,08,40,14.20
2009,05,28,08,41,14.10
2009,05,28,08,42,14.10
2009,05,28,08,43,14.10
2009,05,28,08,44,14.20
2009,05,28,08,45,14.20
2009,05,28,08,46,14.20
2009,05,28,08,47,14.20
2009,05,28,08,48,14.20
2009,05,28,08,49,14.20
2009,05,28,08,50,14.20
2009,05,28,08,51,14.20
2009,05,28,08,52,14.20
2009,05,28,08,53,14.20
2009,05,28,08,54,14.20
2009,05,28,08,55,14.30
2009,05,28,08,56,14.30
2009,05,28,08,57,14.40
2009,05,28,08,58,14.50
2009,05,28,08,59,14.50
2009,05,28,09,00,14.60
2009,05,28,09,01,14.60
2009,05,28,09,02,14.70
2009,05,28,09,03,14.80
2009,05,28,09,04,14.80
2009,05,28,09,05,14.80
2009,05,28,09,06,14.80
2009,05,28,09,07,14.90
2009,05,28,09,08,15.00
2009,05,28,09,09,15.10
2009,05,28,09,10,15.20
2009,05,28,09,11,15.30
2009,05,28,09,12,15.40
2009,05,28,09,13,15.30
2009,05,28,09,14,15.10
2009,05,28,09,15,14.90
2009,05,28,09,16,14.70
2009,05,28,09,17,14.60
2009,05,28,09,18,14.30
2009,05,28,09,19,14.20
2009,05,28,09,20,14.10
2009,05,28,09,21,14.00
2009,05,28,09,22,14.00
2009,05,28,09,23,13.90
2009,05,28,09,24,13.80
2009,05,28,09,25,13.80
2009,05,28,09,26,13.70
2009,05,28,09,27,13.70
2009,05,28,09,28,13.70
2009,05,28,09,29,13.50
2009,05,28,09,30,13.40
2009,05,28,09,31,13.30
2009,05,28,09,32,13.20
2009,05,28,09,33,13.20
2009,05,28,09,34,13.30
2009,05,28,09,35,13.30
2009,05,28,09,36,13.10
2009,05,28,09,37,13.00
2009,05,28,09,38,12.90
2009,05,28,09,39,12.80
2009,05,28,09,40,12.70
2009,05,28,09,41,12.50
2009,05,28,09,42,12.50
2009,05,28,09,43,12.40
2009,05,28,09,44,12.50
2009,05,28,09,45,12.60
2009,05,28,09,46,12.70
2009,05,28,09,47,12.80
2009,05,28,09,48,12.80
2009,05,28,09,49,12.90
2009,05,28,09,50,13.00
2009,05,28,09,51,13.10
2009,05,28,09,52,13.10
2009,05,28,09,53,13.20
2009,05,28,09,54,13.20
2009,05,28,09,55,13.30
2009,05,28,09,56,13.40
2009,05,28,09,57,13.50
2009,05,28,09,58,13.50
2009,05,28,09,59,13.60
2009,05,28,10,00,13.70
2009,05,28,10,01,13.70
2009,05,28,10,02,13.60
2009,05,28,10,03,13.50
2009,05,28,10,04,13.50
2009,05,28,10,05,13.40
2009,05,28,10,06,13.50
2009,05,28,10,07,13.50
2009,05,28,10,08,13.60
2009,05,28,10,09,13.70
2009,05,28,10,10,13.70
2009,05,28,10,11,13.70
2009,05,28,10,12,13.60
2009,05,28,10,13,13.60
2009,05,28,10,14,13.60
2009,05,28,10,15,13.60
2009,05,28,10,16,13.60
2009,05,28,10,17,13.60
2009,05,28,10,18,13.70
2009,05,28,10,19,13.60
2009,05,28,10,20,13.60
2009,05,28,10,21,13.70
2009,05,28,10,22,13.80
2009,05,28,10,23,14.00
2009,05,28,10,24,14.10
2009,05,28,10,25,14.20
2009,05,28,10,26,14.30
2009,05,28,10,27,14.30
2009,05,28,10,28,14.40
2009,05,28,10,29,14.50
2009,05,28,10,30,14.60
2009,05,28,10,31,14.60
2009,05,28,10,32,14.70
2009,05,28,10,33,14.80
2009,05,28,10,34,14.90
2009,05,28,10,35,15.00
2009,05,28,10,36,15.10
2009,05,28,10,37,15.10
2009,05,28,10,38,15.20
2009,05,28,10,39,15.30
2009,05,28,10,40,15.30
2009,05,28,10,41,15.30
2009,05,28,10,42,15.40
2009,05,28,10,43,15.50
2009,05,28,10,44,15.70
2009,05,28,10,45,15.80
2009,05,28,10,46,15.90
2009,05,28,10,47,15.90
2009,05,28,10,48,15.90
2009,05,28,10,49,15.90
2009,05,28,10,50,15.80
2009,05,28,10,51,15.80
2009,05,28,10,52,16.00
2009,05,28,10,53,16.10
2009,05,28,10,54,16.10
2009,05,28,10,55,16.10
2009,05,28,10,56,16.20
2009,05,28,10,57,16.30
2009,05,28,10,58,16.30
2009,05,28,10,59,16.50
2009,05,28,11,00,16.60
2009,05,28,11,01,16.70
2009,05,28,11,02,16.80
2009,05,28,11,03,16.90
2009,05,28,11,04,17.00
2009,05,28,11,05,17.20
2009,05,28,11,06,17.30
2009,05,28,11,07,17.20
2009,05,28,11,08,17.30
2009,05,28,11,09,17.30
2009,05,28,11,10,17.30
2009,05,28,11,11,17.40
2009,05,28,11,12,17.50
2009,05,28,11,13,17.50
2009,05,28,11,14,17.40
2009,05,28,11,15,17.50
2009,05,28,11,16,17.60
2009,05,28,11,17,17.60
2009,05,28,11,18,17.60
2009,05,28,11,19,17.60
2009,05,28,11,20,17.70
2009,05,28,11,21,17.80
2009,05,28,11,22,17.90
2009,05,28,11,23,18.20
2009,05,28,11,24,18.30
2009,05,28,11,25,18.50
2009,05,28,11,26,18.60
2009,05,28,11,27,18.70
2009,05,28,11,28,18.90
2009,05,28,11,29,19.00
2009,05,28,11,30,19.10
2009,05,28,11,31,19.10
2009,05,28,11,32,19.10
2009,05,28,11,33,19.20
2009,05,28,11,34,19.20
2009,05,28,11,35,19.20
2009,05,28,11,36,19.10
2009,05,28,11,37,18.90
2009,05,28,11,38,18.90
2009,05,28,11,39,18.90
2009,05,28,11,40,18.90
2009,05,28,11,41,18.90
2009,05,28,11,42,18.90
2009,05,28,11,43,18.80
2009,05,28,11,44,18.90
2009,05,28,11,45,18.90
2009,05,28,11,46,18.90
2009,05,28,11,47,18.90
2009,05,28,11,48,18.90
2009,05,28,11,49,18.90
2009,05,28,11,50,18.90
2009,05,28,11,51,18.80
2009,05,28,11,52,18.70
2009,05,28,11,53,18.70
2009,05,28,11,54,18.70
2009,05,28,11,55,18.60
2009,05,28,11,56,18.50
2009,05,28,11,57,18.50
2009,05,28,11,58,18.30
2009,05,28,11,59,18.20
2009,05,28,12,00,18.20
2009,05,28,12,01,18.20
2009,05,28,12,02,18.40
2009,05,28,12,03,18.50
2009,05,28,12,04,18.70
2009,05,28,12,05,18.80
2009,05,28,12,06,18.80
2009,05,28,12,07,18.90
2009,05,28,12,08,18.90
2009,05,28,12,09,18.80
2009,05,28,12,10,18.80
2009,05,28,12,11,18.80
2009,05,28,12,12,18.80
2009,05,28,12,13,18.80
2009,05,28,12,14,18.70
2009,05,28,12,15,18.60
2009,05,28,12,16,18.60
2009,05,28,12,17,18.70
2009,05,28,12,18,18.80
2009,05,28,12,19,18.90
2009,05,28,12,20,18.90
2009,05,28,12,21,18.90
2009,05,28,12,22,18.90
2009,05,28,12,23,18.80
2009,05,28,12,24,18.80
2009,05,28,12,25,18.80
2009,05,28,12,26,18.80
2009,05,28,12,27,18.90
2009,05,28,12,28,19.10
2009,05,28,12,29,19.10
2009,05,28,12,30,19.20
2009,05,28,12,31,19.40
2009,05,28,12,32,19.40
2009,05,28,12,33,19.40
2009,05,28,12,34,19.40
2009,05,28,12,35,19.30
2009,05,28,12,36,19.30
2009,05,28,12,37,19.20
2009,05,28,12,38,19.30
2009,05,28,12,39,19.30
2009,05,28,12,40,19.40
2009,05,28,12,41,19.40
2009,05,28,12,42,19.50
2009,05,28,12,43,19.60
2009,05,28,12,44,19.60
2009,05,28,12,45,19.60
2009,05,28,12,46,19.60
2009,05,28,12,47,19.40
2009,05,28,12,48,19.20
2009,05,28,12,49,19.10
2009,05,28,12,50,19.10
2009,05,28,12,51,19.10
2009,05,28,12,52,19.10
2009,05,28,12,53,19.10
2009,05,28,12,54,19.20
2009,05,28,12,55,19.30
2009,05,28,12,56,19.40
2009,05,28,12,57,19.40
2009,05,28,12,58,19.40
2009,05,28,12,59,19.50
2009,05,28,13,00,19.50
2009,05,28,13,01,19.60
2009,05,28,13,02,19.70
2009,05,28,13,03,19.70
2009,05,28,13,04,19.80
2009,05,28,13,05,19.80
2009,05,28,13,06,19.90
2009,05,28,13,07,19.80
2009,05,28,13,08,19.80
2009,05,28,13,09,19.90
2009,05,28,13,10,19.90
2009,05,28,13,11,19.90
2009,05,28,13,12,19.90
2009,05,28,13,13,19.90
2009,05,28,13,14,19.90
2009,05,28,13,15,19.90
2009,05,28,13,16,19.90
2009,05,28,13,17,19.90
2009,05,28,13,18,19.90
2009,05,28,13,19,19.90
2009,05,28,13,20,19.90
2009,05,28,13,21,19.90
2009,05,28,13,22,20.00
2009,05,28,13,23,20.10
2009,05,28,13,24,20.10
2009,05,28,13,25,20.20
2009,05,28,13,26,20.10
2009,05,28,13,27,20.00
2009,05,28,13,28,19.90
2009,05,28,13,29,19.90
2009,05,28,13,30,19.90
2009,05,28,13,31,19.90
2009,05,28,13,32,19.90
2009,05,28,13,33,19.90
2009,05,28,13,34,19.90
2009,05,28,13,35,20.00
2009,05,28,13,36,20.10
2009,05,28,13,37,20.20
2009,05,28,13,38,20.10
2009,05,28,13,39,19.90
2009,05,28,13,40,20.00
2009,05,28,13,41,20.10
2009,05,28,13,42,20.10
2009,05,28,13,43,20.20
2009,05,28,13,44,20.10
2009,05,28,13,45,20.00
2009,05,28,13,46,19.90
2009,05,28,13,47,19.90
2009,05,28,13,48,19.90
2009,05,28,13,49,20.00
2009,05,28,13,50,20.10
2009,05,28,13,51,20.00
2009,05,28,13,52,19.90
2009,05,28,13,53,19.90
2009,05,28,13,54,19.90
2009,05,28,13,55,19.90
2009,05,28,13,56,19.90
2009,05,28,13,57,19.90
2009,05,28,13,58,20.00
2009,05,28,13,59,20.10
2009,05,28,14,00,20.10
2009,05,28,14,01,20.20
2009,05,28,14,02,20.20
2009,05,28,14,03,20.20
2009,05,28,14,04,20.20
2009,05,28,14,05,20.20
2009,05,28,14,06,20.20
2009,05,28,14,07,20.20
2009,05,28,14,08,20.20
2009,05,28,14,09,20.20
2009,05,28,14,10,20.20
2009,05,28,14,11,20.20
2009,05,28,14,12,20.20
2009,05,28,14,13,20.20
2009,05,28,14,14,20.30
2009,05,28,14,15,20.30
2009,05,28,14,16,20.40
2009,05,28,14,17,20.50
2009,05,28,14,18,20.60
2009,05,28,14,19,20.60
2009,05,28,14,20,20.60
2009,05,28,14,21,20.50
2009,05,28,14,22,20.50
2009,05,28,14,23,20.50
2009,05,28,14,24,20.50
2009,05,28,14,25,20.60
2009,05,28,14,26,20.70
2009,05,28,14,27,20.80
2009,05,28,14,28,20.90
2009,05,28,14,29,21.00
2009,05,28,14,30,21.00
2009,05,28,14,31,21.10
2009,05,28,14,32,21.20
2009,05,28,14,33,21.30
2009,05,28,14,34,21.30
2009,05,28,14,35,21.30
2009,05,28,14,36,21.30
2009,05,28,14,37,21.30
2009,05,28,14,38,21.30
2009,05,28,14,39,21.30
2009,05,28,14,40,21.30
2009,05,28,14,41,21.30
2009,05,28,14,42,21.30
2009,05,28,14,43,21.20
2009,05,28,14,44,21.10
2009,05,28,14,45,21.00
2009,05,28,14,46,20.90
2009,05,28,14,47,20.90
2009,05,28,14,48,20.90
2009,05,28,14,49,20.90
2009,05,28,14,50,21.00
2009,05,28,14,51,21.00
2009,05,28,14,52,21.00
2009,05,28,14,53,21.10
2009,05,28,14,54,21.10
2009,05,28,14,55,21.20
2009,05,28,14,56,21.20
2009,05,28,14,57,21.20
2009,05,28,14,58,21.20
2009,05,28,14,59,21.10
2009,05,28,15,00,20.90
2009,05,28,15,01,20.60
2009,05,28,15,02,20.50
2009,05,28,15,03,20.20
2009,05,28,15,04,20.10
2009,05,28,15,05,20.10
2009,05,28,15,06,20.00
2009,05,28,15,07,19.90
2009,05,28,15,08,19.70
2009,05,28,15,09,19.60
2009,05,28,15,10,19.40
2009,05,28,15,11,19.30
2009,05,28,15,12,19.10
2009,05,28,15,13,19.00
2009,05,28,15,14,19.00
2009,05,28,15,15,19.10
2009,05,28,15,16,19.10
2009,05,28,15,17,18.90
2009,05,28,15,18,18.80
2009,05,28,15,19,18.80
2009,05,28,15,20,18.70
2009,05,28,15,21,18.60
2009,05,28,15,22,18.60
2009,05,28,15,23,18.70
2009,05,28,15,24,18.70
2009,05,28,15,25,18.70
2009,05,28,15,26,18.70
2009,05,28,15,27,18.80
2009,05,28,15,28,18.90
2009,05,28,15,29,19.00
2009,05,28,15,30,19.10
2009,05,28,15,31,18.80
2009,05,28,15,32,18.50
2009,05,28,15,33,18.20
2009,05,28,15,34,17.80
2009,05,28,15,35,17.70
2009,05,28,15,36,17.60
2009,05,28,15,37,17.60
2009,05,28,15,38,17.60
2009,05,28,15,39,17.50
2009,05,28,15,40,17.50
2009,05,28,15,41,17.50
2009,05,28,15,42,17.50
2009,05,28,15,43,17.70
2009,05,28,15,44,17.90
2009,05,28,15,45,17.90
2009,05,28,15,46,17.90
2009,05,28,15,47,18.10
2009,05,28,15,48,18.20
2009,05,28,15,49,18.20
2009,05,28,15,50,18.00
2009,05,28,15,51,17.90
2009,05,28,15,52,17.90
2009,05,28,15,53,17.90
2009,05,28,15,54,18.00
2009,05,28,15,55,18.10
2009,05,28,15,56,18.10
2009,05,28,15,57,18.00
2009,05,28,15,58,17.90
2009,05,28,15,59,17.80
2009,05,28,16,00,17.70
2009,05,28,16,01,17.50
2009,05,28,16,02,17.30
2009,05,28,16,03,17.20
2009,05,28,16,04,17.10
2009,05,28,16,05,17.20
2009,05,28,16,06,17.30
2009,05,28,16,07,17.30
2009,05,28,16,08,17.30
2009,05,28,16,09,17.10
2009,05,28,16,10,17.10
2009,05,28,16,11,17.10
2009,05,28,16,12,17.20
2009,05,28,16,13,17.40
2009,05,28,16,14,17.60
2009,05,28,16,15,17.80
2009,05,28,16,16,17.80
2009,05,28,16,17,17.70
2009,05,28,16,18,17.50
2009,05,28,16,19,17.30
2009,05,28,16,20,17.20
2009,05,28,16,21,17.00
2009,05,28,16,22,16.90
2009,05,28,16,23,16.90
2009,05,28,16,24,16.90
2009,05,28,16,25,17.00
2009,05,28,16,26,17.00
2009,05,28,16,27,16.90
2009,05,28,16,28,17.00
2009,05,28,16,29,16.90
2009,05,28,16,30,16.90
2009,05,28,16,31,16.80
2009,05,28,16,32,16.80
2009,05,28,16,33,16.80
2009,05,28,16,34,16.90
2009,05,28,16,35,17.00
2009,05,28,16,36,17.10
2009,05,28,16,37,17.20
2009,05,28,16,38,17.30
2009,05,28,16,39,17.50
2009,05,28,16,40,17.70
2009,05,28,16,41,17.80
2009,05,28,16,42,17.90
2009,05,28,16,43,17.90
2009,05,28,16,44,17.90
2009,05,28,16,45,17.90
2009,05,28,16,46,17.80
2009,05,28,16,47,17.80
2009,05,28,16,48,17.80
2009,05,28,16,49,17.80
2009,05,28,16,50,17.90
2009,05,28,16,51,17.80
2009,05,28,16,52,17.70
2009,05,28,16,53,17.70
2009,05,28,16,54,17.60
2009,05,28,16,55,17.60
2009,05,28,16,56,17.70
2009,05,28,16,57,17.80
2009,05,28,16,58,17.90
2009,05,28,16,59,17.90
2009,05,28,17,00,17.80
2009,05,28,17,01,17.80
2009,05,28,17,02,17.80
2009,05,28,17,03,17.90
2009,05,28,17,04,17.90
2009,05,28,17,05,17.90
2009,05,28,17,06,17.90
2009,05,28,17,07,18.00
2009,05,28,17,08,18.10
2009,05,28,17,09,18.30
2009,05,28,17,10,18.40
2009,05,28,17,11,18.40
2009,05,28,17,12,18.40
2009,05,28,17,13,18.40
2009,05,28,17,14,18.40
2009,05,28,17,15,18.40
2009,05,28,17,16,18.40
2009,05,28,17,17,18.50
2009,05,28,17,18,18.60
2009,05,28,17,19,18.50
2009,05,28,17,20,18.50
2009,05,28,17,21,18.40
2009,05,28,17,22,18.30
2009,05,28,17,23,18.20
2009,05,28,17,24,18.00
2009,05,28,17,25,17.90
2009,05,28,17,26,17.90
2009,05,28,17,27,17.90
2009,05,28,17,28,17.90
2009,05,28,17,29,17.90
2009,05,28,17,30,17.80
2009,05,28,17,31,17.70
2009,05,28,17,32,17.60
2009,05,28,17,33,17.50
2009,05,28,17,34,17.50
2009,05,28,17,35,17.50
2009,05,28,17,36,17.50
2009,05,28,17,37,17.40
2009,05,28,17,38,17.40